Location: Malanoce
(44.2500°N, 7.4667°E)
Time: 21:37:29
(UTC+00:00)

SJ-7 - Pass Details

Date: 17 November 2025
Orbit: 500 x 522 km, 97.7° (Epoch: 11 December)

Event Time Altitude Azimuth Distance (km) Brightness Sun altitude
Rises 17:43:48 0° 161° (SSE) 2,584 7.7 -18.3°
Reaches altitude 10° 17:45:53 10° 159° (SSE) 1,703 6.7 -18.6°
Maximum altitude 17:49:31 71° 75° (ENE) 533 4.0 -19.3°
Drops below altitude 10° 17:53:12 10° 351° (N) 1,717 6.8 -19.9°
Sets 17:55:18 0° 350° (N) 2,607 7.8 -20.3°
